Weather in Sanlucar de Barrameda

Spain     36°46′18″N   6°21′12″W
temp.,
°C
wind,
m/s
gust,
m/s
humid.,
%
clouds,
%
prec.,
mm/h
press.,
hPa
HPBL,
m
13 june, sun
sun1323:00+23sse713530 0.0 1017688
02:00+21se48630 0.0 1017276
05:00+19ese34770 0.0 101777
08:00+19se12770 0.0 101787
11:00+25ese24490 0.0 1018934
14:00+28sw67512 0.0 10181320
17:00+28sw67513 0.0 10171140
20:00+23w55694 0.0 1017413
14 june, mon
mon1423:00+20wnw34850 0.0 1018113
02:00+19wnw12890 0.0 101930
05:00+18e00900 0.0 101816
08:00+19ene12850 0.0 101882
11:00+25ne22520 0.0 1018732
14:00+29w53420 0.0 10181064
17:00+27w65526 0.0 1016502
20:00+24w5561100 0.0 1015328
15 june, tue
tue1523:00+20w35855 0.0 1016142
02:00+20ssw11865 0.0 101620
05:00+19sse33845 0.0 101552
08:00+20s34810 0.0 1015132
11:00+25sw44570 0.0 1015725
14:00+28wsw655087 0.0 1015910
17:00+26wsw6657100 0.0 1014621
20:00+23sw44645 0.0 1013344
16 june, wed
wed1623:00+20sw35831 0.0 1015176
02:00+19wsw23890 0.0 101474
05:00+18ssw229258 0.0 101443
08:00+18s23910 0.0 1014120
11:00+24sw55593 0.0 1015785
14:00+25wsw65532 0.0 1014929
17:00+24w65572 0.0 1013781
20:00+21wsw666776 0.0 1013539
17 june, thu
thu1723:00+18sw47848 0.0 1014244
02:00+18wsw478535 0.0 1014251
05:00+19sw4573100 0.0 1014924
08:00+19sw4679100 0.1 1014402
11:00+21wsw5669100 0.2 1014804
14:00+22wsw5764100 0.4 10151099
17:00+22sw676291 0.0 1015988
20:00+22wsw566482 0.0 1014732